Regional Weather Roundup
Issued by NWS Goodland, KS

Home | Current Version | Previous Version | Text Only | Print | Product List | Glossary Off
Versions: 1 2 3 4 5 6 7 8 9 10 11 12 13 14 15 16 17 18 19 20 21 22 23 24 25 26 27 28 29 30 31 32 33 34 35 36 37 38 39 40 41 42 43 44 45 46 47 48 49 50

000
ASUS43 KGLD 241208
RWRGLD

GOODLAND FORECAST AREA HOURLY WEATHER ROUNDUP
NATIONAL WEATHER SERVICE GOODLAND KS
600 AM MDT SAT JUN 24 2017

...OFFICIAL OBSERVATIONS...

CITY           SKY/WX    TMP DP  RH WIND       PRES   REMARKS
GOODLAND KS    MOCLDY    53  48  83 S5        30.26R
HILL CITY KS   CLEAR     53  48  83 NW3       30.24R
IMPERIAL NEB   CLOUDY    55  47  74 CALM      30.27R
MCCOOK NEB     PTCLDY    48  46  93 W3        30.26R
AKRON CO       MOCLDY    50  37  61 N3        30.30R
BURLINGTON CO  PTCLDY    50  46  86 S3        30.29R
LIMON CO       CLOUDY    56  46  69 CALM      30.31R
$$

...UNOFFICIAL OBSERVATIONS...

CITY           SKY/WX    TMP DP  RH WIND       PRES   REMARKS
LENORA KS        N/A     51  32  48 MISG        N/A
NORTON KS      CLEAR     48  39  71 CALM      30.24S
SHARON SPRINGS   N/A     52  48  87 CALM        N/A
TRENTON NEB      N/A     51  32  48 CALM        N/A
KIT CARSON CO    N/A     54  47  78 CALM        N/A
YUMA CO        CLOUDY    48  43  81 NE5       30.29R
$$




USA.gov is the U.S. government's official web portal to all federal, state and local government web resources and services.